Printer-friendly version

IAU Minor Planet Center

Minor Planet Center

MPEC 2005-N02 : 2005 MM13

The following Minor Planet Electronic Circular may be linked-to from your own Web pages, but must not otherwise be redistributed electronically.


Read MPEC 2005-N01 Read MPEC 2005-N03


M.P.E.C. 2005-N02                                Issued 2005 July 1, 12:24 UT

     The Minor Planet Electronic Circulars contain information on unusual
         minor planets and routine data on comets.  They are published
   on behalf of Commission 20 of the International Astronomical Union by the
          Minor Planet Center, Smithsonian Astrophysical Observatory,
                          Cambridge, MA 02138, U.S.A.

                  Supported in part by the Brinson Foundation
             Prepared using the Tamkin Foundation Computer Network

                              MPC@CFA.HARVARD.EDU
          URL http://cfa-www.harvard.edu/iau/mpc.html  ISSN 1523-6714

                                   2005 MM13

Observations:
     K05M13M* C2005 06 29.18933 16 10 49.61 -03 35 01.1          19.7   EN002644
     K05M13M  C2005 06 29.20900 16 10 47.55 -03 35 34.5          19.6   EN002644
     K05M13M  C2005 06 29.23144 16 10 45.18 -03 36 12.5          19.6   EN002644
     K05M13M 5C2005 07 01.20231 16 07 32.48 -04 32 43.9          19.8 R EN002673
     K05M13M 5C2005 07 01.20440 16 07 32.28 -04 32 47.4                 EN002673
     K05M13M 5C2005 07 01.21262 16 07 31.44 -04 33 01.7                 EN002673
     K05M13M 5C2005 07 01.21957 16 07 30.75 -04 33 13.7                 EN002673
     K05M13M  C2005 07 01.22830 16 07 29.75 -04 33 28.6          20.2 R EN002651
     K05M13M  C2005 07 01.22941 16 07 29.65 -04 33 30.3          20.3 R EN002651
     K05M13M  C2005 07 01.23052 16 07 29.53 -04 33 32.5          20.2 R EN002651

Observer details:
644 Palomar Mountain/NEAT.  Observers R. Bambery, M. Hicks, K. Lawrence,
    E. Helin, R. Thicksten.  1.2-m Schmidt + CCD.
651 Grasslands Observatory, Tucson.  Observer J. E. McGaha.  0.62-m f/5.1
    Newtonian reflector + CCD.
673 Table Mountain Observatory, Wrightwood.  Observer J. Young.  0.6-m
    reflector + CCD.

Orbital elements:
2005 MM13
Epoch 2005 June 19.0 TT = JDT 2453540.5                 MPC
M 302.88206              (2000.0)            P               Q
n   0.44418385     Peri.  251.29179     +0.92701035     +0.10070776
a   1.7012215      Node   101.65105     +0.01387572     +0.95340227
e   0.3270886      Incl.   21.64542     -0.37477896     +0.28439772
P   2.22           H   19.6           G   0.15
From 10 observations 2005 June 29-July 1.

Ephemeris:
2005 MM13                a,e,i = 1.70, 0.33, 22                  q = 1.1448
Date    TT    R. A. (2000) Decl.     Delta      r     Elong.  Phase     V
2005 06 29    16 11.14   -03 29.5    0.583    1.514   140.7    25.2    20.5
2005 07 09    15 56.52   -08 29.6    0.585    1.468   130.9    31.6    20.6
2005 07 19    15 47.21   -13 51.0    0.601    1.423   121.1    37.7    20.8
2005 07 29    15 43.85   -19 14.7    0.626    1.379   112.2    43.0    20.9
2005 08 08    15 46.51   -24 30.3    0.655    1.337   104.3    47.3    21.1
2005 08 18    15 55.06   -29 32.6    0.687    1.296    97.6    50.7    21.2
2005 08 28    16 09.31   -34 18.5    0.717    1.259    92.0    53.3    21.3
2005 09 07    16 29.42   -38 44.9    0.745    1.226    87.4    55.2    21.4
2005 09 17    16 55.75   -42 46.6    0.768    1.197    83.8    56.6    21.5
2005 09 27    17 28.73   -46 14.9    0.788    1.174    81.0    57.5    21.5
2005 10 07    18 08.82   -48 56.8    0.803    1.157    79.1    58.0    21.5
2005 10 17    18 55.72   -50 35.9    0.815    1.147    77.9    58.1    21.5
2005 10 27    19 47.77   -50 54.1    0.825    1.145    77.4    57.9    21.6
2005 11 06    20 41.99   -49 37.7    0.834    1.150    77.5    57.3    21.6
2005 11 16    21 34.79   -46 43.4    0.846    1.161    78.1    56.4    21.6
2005 11 26    22 23.45   -42 20.2    0.862    1.180    79.0    55.2    21.6
2005 12 06    23 06.97   -36 46.0    0.886    1.205    80.0    53.6    21.7
2005 12 16    23 45.56   -30 24.3    0.920    1.235    80.8    51.9    21.8
2005 12 26    00 19.99   -23 39.3    0.967    1.269    81.2    50.0    21.9
2006 01 05    00 51.26   -16 52.2    1.028    1.307    81.0    48.0    22.0

Timothy B. Spahr             (C) Copyright 2005 MPC           M.P.E.C. 2005-N02

Read MPEC 2005-N01 Read MPEC 2005-N03


Our Web policy. Index to the CBAT/MPC/ICQ pages.


Valid HTML 4.01!